STARLINK-36941, 67991

Orbit data source: Space-Track

STARLINK-36941, 67991 is a payload satellite owned by SpaceX/Seattle (US) in LEO that was launched on Fri, 27 Feb 2026 UTC via an FALCON 9 launch vehicle from the Air Force Eastern Test Range (AFETR). Payload-class satellites include a variety of spacecraft equipped with specific instruments for various scientific and technological missions. These include communications satellites like Starlink; space stations such as the ISS; scientific satellites like the Hubble; Earth observation satellites from companies like Planet Labs, Umbra, and HawkEye 360; GPS; miniature CubeSats for education and research; and military/defense satellites.

Loading next visibility...
Identifier
67991, 2026-039F
Orbit
LEO
Country
Flag of USUS
Related business
Manufacturer
SpaceX/Seattle
Mission
Operational Commercial Communications
Bus & Motor
STARLINK V2MO, Unknown motor
Mass
575 kg wet, ~530 kg dry
Launch date (UTC)
2026-02-27 (2 months ago)
Launch vehicle
FALCON 9
Launch site
Air Force Eastern Test Range (AFETR)
Object type
Payload
Rocket body
Debris
Shape & HBR
Box + 2 Pan, 17.7 m
Radar Cross Section
36.964 m²

Expand to show TLE details & history
Last TLE update: 7 hours ago

TLE from 7 hours ago
0 STARLINK-36941
1 67991U 26039F   26119.31135761  .00012480  00000-0  46227-3 0  9997
2 67991  43.0044 123.2122 0001086 290.6343  69.4392 15.27579253  9440
Epoch: 2026-04-29T07:28Z
TLE epoch observation values (Epoch: 2026-04-29T07:28:21.297Z)
Latitude
-0.00003°
Longitude
153.84929°
Altitude
482.566 km
Speed
7.626 km/s
True Right ascension
08h 12m 50s
True Declination
0° 00' 00"
Sunlit
Object was in daylight at epoch
Visualization orbit readout
Latitude
Unknown
Longitude
Unknown
Altitude
Unknown
Speed
Unknown
Apparent Right ascension
Unknown
Apparent Declination
Unknown
Sunlit
N/A
Visualization observer readout
Local Sidereal Time
21:53:43
Azimuth
Unknown
Elevation
Unknown
Doppler factor
Unknown
Orbital elements
Apogee altitude
485.741 km
Perigee altitude
484.25 km
Semi-major axis
6,863.133 km
Eccentricity
0.00011
Inclination
43.0044°
RAAN
123.2122°
Arg. of periapsis
290.6343°
True anomaly
69.45085°
Mean anomaly
69.4392°
Eccentric anomaly
69.44503°
Mean motion
3.81733 °/min
Orbital period
94.31 mins
BSTAR
0.00046227
Loading maneuver chart data...
Computing Atmospheric mass density...
Loading historical data...
Loading historical data...
Loading historical data...
Loading historical data...
Loading historical data...
Loading historical data...
Loading historical data...

Documentation

Showing up to 5 results
|